Weather History for Farmingdale, NY

Change the Weather History Date:

Friday, April 11, 2014

  Actual Average Record
Temperature  
Mean Temperature 58 °F -  
Max Temperature 69 °F 56 °F 69 °F (2014)
Min Temperature 48 °F 39 °F 28 °F (2007)
Degree Days  
Heating Degree Days 7    
Growing Degree Days 8 (Base 50)    
Moisture  
Dew Point 43 °F    
Average Humidity 64    
Maximum Humidity 83    
Minimum Humidity 40    
Precipitation  
Precipitation 0.00 in - - ()
Sea Level Pressure  
Sea Level Pressure 30.01 in    
Wind  
Wind Speed 10 mph (SSW)    
Max Wind Speed 15 mph    
Max Gust Speed 20 mph    
Visibility 10 miles    
Events      
Averages and records for this station are not official NWS values.
T = Trace of Precipitation, MM = Missing Value Source: NWS Daily Summary

Daily Weather History Graph

Daily Weather History Graph

Search for Another Location

Airport:

Trip Planner

Search our weather history database for the weather conditions in past years. The results will help you decide how hot, cold, wet, or windy it might be!

Date:

Astronomy

Apr. 11, 2014 Rise Set
Actual Time 6:21 AM EDT 7:28 PM EDT
Civil Twilight 5:53 AM EDT 7:57 PM EDT
Nautical Twilight 5:19 AM EDT 8:30 PM EDT
Astronomical Twilight 4:44 AM EDT 9:06 PM EDT
Moon 4:05 PM EDT (4/11) 4:16 AM EDT (4/11)
Length of Visible Light 14h 04m
Length of Day
13h 07m
Waxing Gibbous, 87% of the Moon is Illuminated
Apr 11
Waxing Gibbous
Apr 15
Full
Apr 22
Last Quarter
Apr 29
New
May 6
First Quarter

Hourly Weather History & Observations

Time (EDT) Temp. Dew Point Humidity Pressure Visibility Wind Dir Wind Speed Gust Speed Precip Events Conditions
12:53 AM 48.9 °F 37.9 °F 66% 30.06 in 10.0 mi SW 15.0 mph - N/A   Clear
1:53 AM 48.0 °F 39.9 °F 74% 30.03 in 10.0 mi SW 11.5 mph 19.6 mph N/A   Clear
2:53 AM 48.9 °F 42.1 °F 77% 30.00 in 10.0 mi SW 12.7 mph - N/A   Clear
3:53 AM 48.9 °F 42.1 °F 77% 29.99 in 10.0 mi SSW 11.5 mph - N/A   Clear
4:53 AM 48.0 °F 42.1 °F 80% 29.98 in 10.0 mi SSW 10.4 mph - N/A   Clear
5:53 AM 48.0 °F 43.0 °F 83% 29.99 in 10.0 mi SW 9.2 mph - N/A   Clear
6:53 AM 48.0 °F 43.0 °F 83% 30.01 in 8.0 mi SSW 6.9 mph - N/A   Clear
7:53 AM 48.9 °F 43.0 °F 80% 30.02 in 8.0 mi WSW 4.6 mph - N/A   Mostly Cloudy
8:53 AM 52.0 °F 43.0 °F 71% 30.04 in 9.0 mi South 5.8 mph - N/A   Clear
9:53 AM 59.0 °F 43.0 °F 55% 30.04 in 10.0 mi WSW 8.1 mph - N/A   Clear
10:53 AM 64.9 °F 39.9 °F 40% 30.04 in 10.0 mi West 10.4 mph - N/A   Clear
11:53 AM 68.0 °F 44.1 °F 42% 30.02 in 10.0 mi SSW 6.9 mph - N/A   Clear
12:53 PM 62.1 °F 43.0 °F 50% 30.01 in 10.0 mi SSW 12.7 mph - N/A   Clear
1:53 PM 66.9 °F 43.0 °F 42% 29.99 in 10.0 mi SSW 11.5 mph - N/A   Clear
2:53 PM 63.0 °F 44.1 °F 50% 29.98 in 10.0 mi South 13.8 mph - N/A   Clear
3:53 PM 66.0 °F 43.0 °F 43% 29.96 in 10.0 mi SSW 12.7 mph - N/A   Clear
4:53 PM 55.0 °F 44.1 °F 67% 29.97 in 10.0 mi South 10.4 mph - N/A   Clear
5:53 PM 55.0 °F 44.1 °F 67% 29.98 in 10.0 mi SSW 5.8 mph - N/A   Clear
6:53 PM 57.9 °F 44.1 °F 60% 29.98 in 10.0 mi North 3.5 mph - N/A   Partly Cloudy
7:53 PM 57.9 °F 45.0 °F 62% 29.98 in 10.0 mi Calm Calm - N/A   Clear
8:53 PM 57.0 °F 45.0 °F 64% 30.02 in 10.0 mi Calm Calm - N/A   Partly Cloudy
9:53 PM 61.0 °F 48.0 °F 62% 30.02 in 10.0 mi NW 3.5 mph - N/A   Partly Cloudy
10:53 PM 57.9 °F 46.9 °F 67% 30.02 in 10.0 mi SE 3.5 mph - N/A   Mostly Cloudy
11:53 PM 53.1 °F 46.9 °F 80% 30.01 in 8.0 mi SSE 3.5 mph - N/A   Overcast